Overview Statistics Trail Chart Weather Telemetry Raw packets
 

This is the latest recevied weather packets stored in our database for station/object KB0BDN-13. If no packets are shown the sender has not sent any weather packets the latest 10 day(s).

<< 43 44 45 46 47 48 49 >>
Time Temp. Humidity Pressure Rain* Wind** Luminosity Snow
1788139750 17.22° C 92% 1006.2 hPa 0 mm - - -
1788138997 17.22° C 92% 1006.2 hPa 0 mm - - -
1788138097 17.22° C 91% 1006.2 hPa 0 mm - - -
1788137951 17.22° C 91% 1006.2 hPa 0 mm - - -
1788137197 17.78° C 90% 1006.2 hPa 0 mm - - -
1788137050 17.78° C 90% 1006.2 hPa 0 mm - - -
1788136297 17.78° C 89% 1006.2 hPa 0 mm - - -
1788136150 17.78° C 89% 1006.6 hPa 0 mm - - -
1788135397 17.78° C 88% 1006.6 hPa 0 mm - - -
1788135250 18.33° C 88% 1006.7 hPa 0 mm - - -
1788134497 18.33° C 87% 1006.7 hPa 0 mm - - -
1788134350 18.33° C 87% 1006.7 hPa 0 mm - - -
1788133597 18.89° C 86% 1006.7 hPa 0 mm - - -
1788133451 18.89° C 86% 1006.9 hPa 0 mm - - -
1788132697 18.89° C 85% 1006.9 hPa 0 mm - - -
1788132550 18.89° C 86% 1006.8 hPa 0 mm - - -
1788131797 18.89° C 85% 1006.8 hPa 0 mm - - -
1788130896 19.44° C 85% 1006.8 hPa 0 mm - - -
1788130751 19.44° C 85% 1006.8 hPa 0 mm - - -
1788129996 19.44° C 84% 1006.8 hPa 0 mm - - -
1788129850 19.44° C 84% 1007 hPa 0 mm - - -
1788129096 20° C 83% 1007 hPa 0 mm - - -
1788128950 20° C 84% 1007.2 hPa 0 mm - - -
1788128196 19.44° C 83% 1007.2 hPa 0 mm - - -
1788128050 20° C 83% 1007.3 hPa 0 mm - - -

* Rain latest hour (hover to see other rain measurements)
** Current wind speed in m/s (hover to see current wind gust speed)